Change the Weather History Date:

Friday, December 30, 2011

  Actual Average Record
Temperature  
Mean Temperature 61 °F 51 °F  
Max Temperature 74 °F 61 °F 79 °F (1974)
Min Temperature 47 °F 40 °F 14 °F (1880)
Degree Days  
Heating Degree Days 4 15  
Month to date heating degree days 305 390  
Since 1 July heating degree days 595 648  
Cooling Degree Days 0 0  
Month to date cooling degree days 13 8  
Year to date cooling degree days 2857 2511  
Growing Degree Days 10 (Base 50)    
Moisture  
Dew Point 52 °F    
Average Humidity 75    
Maximum Humidity 100    
Minimum Humidity 49    
Precipitation  
Precipitation 0.00 in 0.16 in 4.51 in (1968)
Month to date precipitation 1.88 4.89  
Year to date precipitation 50.42 65.98  
Snow  
Snow 0.00 in 0.00 in 0.00 in (2001)
Month to date snowfall 0.0 0.0  
Since 1 July snowfall 0.0 0.0  
Snow Depth 0.00 in    
Sea Level Pressure  
Sea Level Pressure 30.04 in    
Wind  
Wind Speed 7 mph (SSW)    
Max Wind Speed 22 mph    
Max Gust Speed 26 mph    
Visibility 6 miles    
Events Fog    
T = Trace of Precipitation, MM = Missing Value Source: NWS Daily Summary

Daily Weather History Graph

Daily Weather History Graph

Search for Another Location

Airport or City:

Trip Planner

Search our weather history database for the weather conditions in past years. The results will help you decide how hot, cold, wet, or windy it might be!

Date:

Astronomy

Dec. 30, 2011 Rise Set
Actual Time 6:49 AM CST 5:01 PM CST
Civil Twilight 6:23 AM CST 5:27 PM CST
Nautical Twilight 5:53 AM CST 5:57 PM CST
Astronomical Twilight 5:23 AM CST 6:27 PM CST
Moon 10:35 AM CST (12/30) 11:07 PM CST (12/30)
Length of Visible Light 11h 04m
Length of Day
10h 11m
Waxing Crescent, 36% of the Moon is Illuminated
Dec 30
Waxing Crescent
Jan 1
First Quarter
Jan 9
Full
Jan 16
Last Quarter
Jan 23
New

Hourly Weather History & Observations

Time (CST) Temp. Dew Point Humidity Pressure Visibility Wind Dir Wind Speed Gust Speed Precip Events Conditions
12:56 AM 50.0 °F 48.9 °F 96% 30.01 in 9.0 mi SSE 4.6 mph - N/A   Partly Cloudy
1:48 AM 48.2 °F 46.4 °F 93% 30.02 in 1.0 mi SSE 3.5 mph - N/A   Mist
1:53 AM 48.2 °F 46.4 °F 93% 30.02 in 0.2 mi Calm Calm - N/A Fog Fog
1:56 AM 48.0 °F 46.9 °F 96% 30.02 in 0.2 mi Calm Calm - N/A Fog Fog
2:26 AM 48.2 °F 46.4 °F 93% 30.03 in 0.2 mi Calm Calm - N/A Fog Fog
2:56 AM 46.4 °F 46.4 °F 100% 30.03 in 0.2 mi Calm Calm - N/A Fog Fog
3:24 AM 48.2 °F 46.4 °F 93% 30.03 in 0.2 mi Calm Calm - N/A Fog Fog
3:56 AM 48.2 °F 46.4 °F 93% 30.02 in 0.2 mi Calm Calm - N/A Fog Fog
4:22 AM 48.2 °F 46.4 °F 93% 30.03 in 0.5 mi South 3.5 mph - N/A Fog Fog
4:30 AM 48.2 °F 46.4 °F 93% 30.03 in 3.0 mi South 3.5 mph - N/A   Scattered Clouds
4:56 AM 48.0 °F 46.9 °F 96% 30.03 in 1.0 mi SSE 3.5 mph - N/A   Mostly Cloudy
5:31 AM 50.0 °F 48.2 °F 94% 30.03 in 3.0 mi SSE 5.8 mph - N/A   Mostly Cloudy
5:56 AM 48.9 °F 48.0 °F 97% 30.04 in 3.0 mi SSE 5.8 mph - N/A   Scattered Clouds
6:20 AM 48.2 °F 48.2 °F 100% 30.04 in 4.0 mi SSE 4.6 mph - N/A Fog Mostly Cloudy
6:36 AM 50.0 °F 48.2 °F 94% 30.05 in 4.0 mi SE 4.6 mph - N/A Fog Mostly Cloudy
6:56 AM 48.9 °F 48.0 °F 97% 30.06 in 3.0 mi SSE 4.6 mph - N/A Fog Mostly Cloudy
7:44 AM 53.6 °F 53.6 °F 100% 30.07 in 5.0 mi SSE 6.9 mph - N/A   Scattered Clouds
7:56 AM 55.0 °F 54.0 °F 96% 30.06 in 5.0 mi SSE 6.9 mph - N/A   Scattered Clouds
8:56 AM 62.1 °F 57.9 °F 86% 30.08 in 10.0 mi South 6.9 mph - N/A   Partly Cloudy
9:56 AM 66.9 °F 57.0 °F 70% 30.09 in 10.0 mi SSW 11.5 mph - N/A   Scattered Clouds
10:04 AM 68.0 °F 57.2 °F 68% 30.09 in 10.0 mi SSW 13.8 mph - N/A   Mostly Cloudy
10:18 AM 69.8 °F 57.2 °F 64% 30.09 in 10.0 mi SW 10.4 mph 18.4 mph N/A   Mostly Cloudy
10:56 AM 69.1 °F 57.0 °F 65% 30.07 in 10.0 mi SW 8.1 mph - N/A   Mostly Cloudy
11:56 AM 73.0 °F 57.0 °F 57% 30.04 in 10.0 mi SW 10.4 mph 18.4 mph N/A   Mostly Cloudy
12:56 PM 73.0 °F 55.0 °F 53% 30.01 in 10.0 mi SW 15.0 mph 23.0 mph N/A   Scattered Clouds
1:56 PM 73.9 °F 54.0 °F 50% 30.00 in 10.0 mi SW 18.4 mph 26.5 mph N/A   Scattered Clouds
2:56 PM 73.4 °F 53.6 °F 50% 30.01 in 10.0 mi SW 15.0 mph - N/A   Scattered Clouds
3:56 PM 71.1 °F 55.9 °F 59% 30.01 in 10.0 mi SW 12.7 mph - N/A   Partly Cloudy
4:56 PM 66.9 °F 57.0 °F 70% 30.01 in 10.0 mi SW 9.2 mph - N/A   Partly Cloudy
5:56 PM 64.0 °F 57.9 °F 80% 30.02 in 10.0 mi South 6.9 mph - N/A   Clear
6:56 PM 61.0 °F 57.9 °F 90% 30.04 in 10.0 mi SSW 5.8 mph - N/A   Clear
7:56 PM 59.0 °F 57.0 °F 93% 30.05 in 9.0 mi SSW 5.8 mph - N/A   Partly Cloudy
8:56 PM 59.0 °F 57.0 °F 93% 30.06 in 10.0 mi SW 5.8 mph - N/A   Partly Cloudy
9:56 PM 59.0 °F 57.0 °F 93% 30.06 in 10.0 mi SW 6.9 mph - N/A   Partly Cloudy
10:56 PM 57.9 °F 55.9 °F 93% 30.05 in 10.0 mi SSW 5.8 mph - N/A   Partly Cloudy
11:56 PM 59.0 °F 55.9 °F 90% 30.05 in 10.0 mi WSW 3.5 mph - N/A   Partly Cloudy